| time (UTC) | temp F | wind direction | speed MPH | gust MPH | rain 1hr in | rain 24hr in | rain mn in | humidity % | barometer mb |
| 20260507032602 | 68 | 297 | 9.0 | 0.0 | 0.00 | 0.00 | 0.00 | 1004.4 | |
| 20260507031426 | 68 | 277 | 7.0 | 0.0 | 0.00 | 0.00 | 0.00 | 1004.2 | |
| 20260507030248 | 69 | 271 | 6.0 | 0.0 | 0.00 | 0.00 | 0.00 | 1003.9 | |
| 20260507025111 | 69 | 278 | 11.0 | 0.0 | 0.00 | 0.00 | 0.00 | 1003.8 | |
| 20260507023934 | 69 | 246 | 11.0 | 0.0 | 0.00 | 0.00 | 0.00 | 1003.5 | |
| 20260507022758 | 70 | 260 | 8.0 | 0.0 | 0.00 | 0.00 | 0.00 | 1003.4 | |
| 20260507021620 | 71 | 270 | 9.0 | 0.0 | 0.00 | 0.00 | 0.00 | 1003.1 | |
| 20260507020443 | 71 | 270 | 13.0 | 0.0 | 0.00 | 0.00 | 0.00 | 1003.0 | |
| 20260507015307 | 72 | 242 | 13.0 | 0.0 | 0.00 | 0.00 | 0.00 | 1002.4 | |
| 20260507014128 | 72 | 256 | 8.0 | 0.0 | 0.00 | 0.00 | 0.00 | 1002.2 | |
| 20260507012952 | 74 | 280 | 9.0 | 0.0 | 0.00 | 0.00 | 0.00 | 1001.9 | |
| 20260507011815 | 75 | 283 | 9.0 | 0.0 | 0.00 | 0.00 | 0.00 | 1001.7 | |
| 20260507010638 | 76 | 255 | 6.0 | 0.0 | 0.00 | 0.00 | 0.00 | 1001.5 | |
| 20260507005501 | 77 | 226 | 8.0 | 0.0 | 0.00 | 0.00 | 0.00 | 1001.3 | |
| 20260507003147 | 81 | 285 | 15.0 | 0.0 | 0.00 | 0.00 | 0.00 | 1000.8 | |
| 20260507002010 | 82 | 250 | 14.0 | 0.0 | 0.00 | 0.00 | 0.00 | 1000.5 | |
| 20260507000833 | 83 | 236 | 11.0 | 0.0 | 0.00 | 0.00 | 0.00 | 1000.4 | |
| 20260506235656 | 85 | 224 | 13.0 | 0.0 | 0.00 | 0.00 | 0.00 | 1000.0 | |
| 20260506234519 | 86 | 301 | 7.0 | 0.0 | 0.00 | 0.00 | 0.00 | 999.8 | |
| 20260506233341 | 87 | 307 | 9.0 | 0.0 | 0.00 | 0.00 | 0.00 | 999.8 | |
| 20260506232205 | 88 | 305 | 7.0 | 0.0 | 0.00 | 0.00 | 0.00 | 999.8 | |
| 20260506231028 | 88 | 314 | 8.0 | 0.0 | 0.00 | 0.00 | 0.00 | 999.7 | |
| 20260506225851 | 88 | 298 | 10.0 | 0.0 | 0.00 | 0.00 | 0.00 | 999.7 | |
| 20260506224714 | 89 | 284 | 3.0 | 0.0 | 0.00 | 0.00 | 0.00 | 999.6 | |
| 20260506223537 | 90 | 280 | 8.0 | 0.0 | 0.00 | 0.00 | 0.00 | 999.6 | |
| 20260506222400 | 90 | 308 | 9.0 | 0.0 | 0.00 | 0.00 | 0.00 | 999.3 | |
| 20260506221222 | 90 | 281 | 6.0 | 0.0 | 0.00 | 0.00 | 0.00 | 999.4 | |
| 20260506220046 | 90 | 278 | 7.0 | 0.0 | 0.00 | 0.00 | 0.00 | 999.4 | |
| 20260506214908 | 91 | 266 | 3.0 | 0.0 | 0.00 | 0.00 | 0.00 | 999.5 | |
| 20260506213731 | 90 | 291 | 6.0 | 0.0 | 0.00 | 0.00 | 0.00 | 999.6 | |
| 20260506212555 | 89 | 240 | 7.0 | 0.0 | 0.00 | 0.00 | 0.00 | 999.6 | |
| 20260506211418 | 88 | 257 | 5.0 | 0.0 | 0.00 | 0.00 | 0.00 | 999.7 | |
| 20260506210240 | 88 | 281 | 7.0 | 0.0 | 0.00 | 0.00 | 0.00 | 999.8 | |
| 20260506205103 | 88 | 260 | 7.0 | 0.0 | 0.00 | 0.00 | 0.00 | 1000.0 | |
| 20260506203927 | 87 | 354 | 3.0 | 0.0 | 0.00 | 0.00 | 0.00 | 1000.1 | |
| 20260506202749 | 88 | 271 | 3.0 | 0.0 | 0.00 | 0.00 | 0.00 | 1000.2 | |
| 20260506200435 | 88 | 281 | 3.0 | 0.0 | 0.00 | 0.00 | 0.00 | 1000.3 | |
| 20260506195258 | 88 | 259 | 3.0 | 0.0 | 0.00 | 0.00 | 0.00 | 1000.5 | |
| 20260506194122 | 89 | 291 | 6.0 | 0.0 | 0.00 | 0.00 | 0.00 | 1000.7 | |
| 20260506192944 | 88 | 226 | 3.0 | 0.0 | 0.00 | 0.00 | 0.00 | 1000.7 | |
| 20260506191807 | 89 | 229 | 4.0 | 0.0 | 0.00 | 0.00 | 0.00 | 1001.0 | |
| 20260506190631 | 88 | 285 | 0.0 | 0.0 | 0.00 | 0.00 | 0.00 | 1001.0 | |
| 20260506185454 | 86 | 308 | 3.0 | 0.0 | 0.00 | 0.00 | 0.00 | 1001.1 | |
| 20260506184317 | 86 | 332 | 0.0 | 0.0 | 0.00 | 0.00 | 0.00 | 1001.3 | |
| 20260506183140 | 85 | 288 | 4.0 | 0.0 | 0.00 | 0.00 | 0.00 | 1001.3 | |
| 20260506182003 | 85 | 238 | 0.0 | 0.0 | 0.00 | 0.00 | 0.00 | 1001.4 | |
| 20260506175649 | 86 | 236 | 4.0 | 0.0 | 0.00 | 0.00 | 0.00 | 1001.7 | |
| 20260506174513 | 87 | 235 | 6.0 | 0.0 | 0.00 | 0.00 | 0.00 | 1001.8 | |
| 20260506173335 | 85 | 249 | 5.0 | 0.0 | 0.00 | 0.00 | 0.00 | 1001.8 | |
| 20260506172158 | 85 | 180 | 4.0 | 0.0 | 0.00 | 0.00 | 0.00 | 1001.8 | |
| 20260506171022 | 85 | 217 | 0.0 | 0.0 | 0.00 | 0.00 | 0.00 | 1001.8 | |
| 20260506165844 | 85 | 219 | 3.0 | 0.0 | 0.00 | 0.00 | 0.00 | 1001.8 | |
| 20260506164708 | 84 | 307 | 0.0 | 0.0 | 0.00 | 0.00 | 0.00 | 1001.7 | |
| 20260506163531 | 84 | 284 | 0.0 | 0.0 | 0.00 | 0.00 | 0.00 | 1001.7 | |
| 20260506161217 | 84 | 42 | 0.0 | 0.0 | 0.00 | 0.00 | 0.00 | 1001.6 | |
| 20260506160040 | 82 | 42 | 0.0 | 0.0 | 0.00 | 0.00 | 0.00 | 1001.4 | |
| 20260506154903 | 82 | 56 | 3.0 | 0.0 | 0.00 | 0.00 | 0.00 | 1001.3 | |
| 20260506153726 | 82 | 41 | 0.0 | 0.0 | 0.00 | 0.00 | 0.00 | 1001.1 | |
| 20260506152549 | 80 | 39 | 0.0 | 0.0 | 0.00 | 0.00 | 0.00 | 1001.0 | |
| 20260506151412 | 80 | 35 | 0.0 | 0.0 | 0.00 | 0.00 | 0.00 | 1000.8 | |
| 20260506150235 | 80 | 325 | 3.0 | 0.0 | 0.00 | 0.00 | 0.00 | 1000.6 | |
| 20260506145058 | 79 | 325 | 6.0 | 0.0 | 0.00 | 0.00 | 0.00 | 1000.3 | |
| 20260506143921 | 79 | 11 | 0.0 | 0.0 | 0.00 | 0.00 | 0.00 | 1000.2 | |
| 20260506142744 | 78 | 28 | 4.0 | 0.0 | 0.00 | 0.00 | 0.00 | 1000.0 | |
| 20260506141607 | 77 | 3 | 3.0 | 0.0 | 0.00 | 0.00 | 0.00 | 1000.0 | |
| 20260506140430 | 77 | 4 | 8.0 | 0.0 | 0.00 | 0.00 | 0.00 | 999.9 | |
| 20260506135253 | 77 | 17 | 0.0 | 0.0 | 0.00 | 0.00 | 0.00 | 999.8 | |
| 20260506134116 | 76 | 11 | 4.0 | 0.0 | 0.00 | 0.00 | 0.00 | 999.8 | |
| 20260506132939 | 76 | 35 | 0.0 | 0.0 | 0.00 | 0.00 | 0.00 | 999.8 | |
| 20260506131801 | 76 | 35 | 5.0 | 0.0 | 0.00 | 0.00 | 0.00 | 999.7 | |
| 20260506130626 | 76 | 359 | 0.0 | 0.0 | 0.00 | 0.00 | 0.00 | 1009.3 | |
| 20260506125448 | 75 | 342 | 4.0 | 0.0 | 0.00 | 0.00 | 0.00 | 999.6 | |
| 20260506124310 | 75 | 349 | 3.0 | 0.0 | 0.00 | 0.00 | 0.00 | 999.6 | |
| 20260506123134 | 74 | 31 | 0.0 | 0.0 | 0.00 | 0.00 | 0.00 | 999.7 | |
| 20260506121956 | 74 | 31 | 0.0 | 0.0 | 0.00 | 0.00 | 0.00 | 999.7 | |
| 20260506120820 | 74 | 31 | 0.0 | 0.0 | 0.00 | 0.00 | 0.00 | 999.6 | |
| 20260506115642 | 74 | 31 | 0.0 | 0.0 | 0.00 | 0.00 | 0.00 | 999.6 | |
| 20260506114505 | 74 | 31 | 0.0 | 0.0 | 0.00 | 0.00 | 0.00 | 999.6 | |
| 20260506113330 | 74 | 31 | 0.0 | 0.0 | 0.00 | 0.00 | 0.00 | 999.4 | |
| 20260506112152 | 74 | 31 | 0.0 | 0.0 | 0.00 | 0.00 | 0.00 | 999.4 | |
| 20260506111015 | 74 | 31 | 0.0 | 0.0 | 0.00 | 0.00 | 0.00 | 999.4 | |
| 20260506105838 | 74 | 340 | 0.0 | 0.0 | 0.00 | 0.00 | 0.00 | 999.4 | |
| 20260506104701 | 75 | 25 | 0.0 | 0.0 | 0.00 | 0.00 | 0.00 | 999.2 | |
| 20260506102348 | 24 | 354 | 6.0 | 0.0 | 0.00 | 0.00 | 0.00 | 999.3 | |
| 20260506101210 | 76 | 359 | 3.0 | 0.0 | 0.00 | 0.00 | 0.00 | 999.3 | |
| 20260506100032 | 76 | 345 | 4.0 | 0.0 | 0.00 | 0.00 | 0.00 | 999.3 | |
| 20260506094855 | 76 | 311 | 6.0 | 0.0 | 0.00 | 0.00 | 0.00 | 999.2 | |
| 20260506092542 | 76 | 359 | 7.0 | 0.0 | 0.00 | 0.00 | 0.00 | 999.3 | |
| 20260506091406 | 76 | 24 | 3.0 | 0.0 | 0.00 | 0.00 | 0.00 | 999.5 | |
| 20260506090228 | 76 | 32 | 2.0 | 0.0 | 0.00 | 0.00 | 0.00 | 999.5 | |
| 20260506085051 | 76 | 25 | 5.0 | 0.0 | 0.00 | 0.00 | 0.00 | 999.5 | |
| 20260506083915 | 77 | 44 | 4.0 | 0.0 | 0.00 | 0.00 | 0.00 | 999.4 | |
| 20260506082738 | 77 | 13 | 5.0 | 0.0 | 0.00 | 0.00 | 0.00 | 999.5 | |
| 20260506081601 | 77 | 346 | 5.0 | 0.0 | 0.00 | 0.00 | 0.00 | 999.5 | |
| 20260506080423 | 77 | 359 | 6.0 | 0.0 | 0.00 | 0.00 | 0.00 | 999.6 | |
| 20260506072933 | 77 | 24 | 4.0 | 0.0 | 0.00 | 0.00 | 0.00 | 999.4 | |
| 20260506071756 | 77 | 24 | 3.0 | 0.0 | 0.00 | 0.00 | 0.00 | 999.5 | |
| 20260506070618 | 77 | 34 | 4.0 | 0.0 | 0.00 | 0.00 | 0.00 | 999.5 | |
| 20260506061950 | 77 | 4 | 9.0 | 0.0 | 0.00 | 0.00 | 0.00 | 999.8 | |
| 20260506060814 | 77 | 30 | 6.0 | 0.0 | 0.00 | 0.00 | 0.00 | 1000.0 | |
| 20260506051008 | 77 | 38 | 5.0 | 0.0 | 0.00 | 0.00 | 0.00 | 999.9 | |
| 20260506044655 | 77 | 38 | 6.0 | 0.0 | 0.00 | 0.00 | 0.00 | 1000.0 | |
| 20260506043517 | 77 | 60 | 7.0 | 0.0 | 0.00 | 0.00 | 0.00 | 999.8 | |
| 20260506042341 | 78 | 343 | 10.0 | 0.0 | 0.00 | 0.00 | 0.00 | 999.7 | |
| 20260506040027 | 78 | 311 | 5.0 | 0.0 | 0.00 | 0.00 | 0.00 | 999.7 | |
| 20260506034850 | 78 | 359 | 0.0 | 0.0 | 0.00 | 0.00 | 0.00 | 999.6 | |
| 20260506033713 | 78 | 319 | 7.0 | 0.0 | 0.00 | 0.00 | 0.00 | 999.3 |